Rochester, MN
on Sunday, October 13, 2013

Sunday
Previous Day Next Day
Daily Summary
 ActualAverageRecord
Temperature
Mean Temperature °F 50°F  
Max Temperature 60°F 60°F 85°F (1975)
Min Temperature 34°F 39°F 15°F (1917)
Degree Days
Heating Degree Days 18 16  
Month to date heating degree days 99 176  
Since 1 July heating degree days 253 391  
Cooling Degree Days 0 0  
Month to date cooling degree days 0 4  
Year to date cooling degree days 656 583  
Moisture
Dew Point 32°F   
Average Humidity 61    
Maximum Humidity 89    
Minimum Humidity 33    
Precipitation
Precipitation 0.00 in 0.07 in 1.74 in (1956)
Month to date precipitation 2.09 1.08  
Year to date precipitation 38.01 28.72  
Snow
Snow 0.00 in 0.00 in 0.50 in (2009)
Month to date snowfall 0.0 0.1  
Since 1 July snowfall 0.0 0.1  
Snow Depth 0.00 in   
Wind
Wind Speed 5 mph   
Max Wind Speed 12 mph   
Max Gust Speed 16 mph   
Visibility 10 miles   
Events     

Key: T is trace of precipitation, MM is missing value
Source: NWS Daily Summary
Time(CDT)TemperatureDew PointHumidity Pressure Visibility Wind DirectionWind SpeedGust SpeedPrecipitationEvents Conditions
12:54 AM 41.0°F 33.1°F 73% 30.26 in 10.0 miles West 9.2 mph - N/A   Clear
1:54 AM 39.9°F 32.0°F 73% 30.28 in 10.0 miles West 9.2 mph - N/A   Clear
2:54 AM 39.0°F 32.0°F 76% 30.30 in 10.0 miles West 9.2 mph - N/A   Clear
3:54 AM 37.9°F 30.9°F 76% 30.30 in 10.0 miles WNW 8.1 mph - N/A   Clear
4:54 AM 37.0°F 32.0°F 82% 30.33 in 10.0 miles West 8.1 mph - N/A   Clear
5:54 AM 36.0°F 30.9°F 82% 30.35 in 10.0 miles West 9.2 mph - N/A   Clear
6:54 AM 34.0°F 30.0°F 85% 30.39 in 10.0 miles West 8.1 mph - N/A   Clear
7:54 AM 36.0°F 30.9°F 82% 30.41 in 10.0 miles WNW 6.9 mph - N/A   Clear
8:54 AM 43.0°F 34.0°F 71% 30.43 in 10.0 miles WNW 4.6 mph - N/A   Clear
9:54 AM 48.9°F 37.9°F 66% 30.45 in 10.0 miles Calm Calm - N/A   Clear
10:54 AM 53.1°F 37.9°F 57% 30.46 in 10.0 miles Calm Calm - N/A   Clear
11:54 AM 55.9°F 35.1°F 45% 30.46 in 10.0 miles WNW 8.1 mph - N/A   Clear
12:54 PM 57.0°F 33.1°F 40% 30.45 in 10.0 miles WSW 3.5 mph - N/A   Clear
1:54 PM 57.9°F 30.9°F 36% 30.43 in 10.0 miles WNW 4.6 mph - N/A   Clear
2:54 PM 59.0°F 32.0°F 36% 30.41 in 10.0 miles Calm Calm - N/A   Clear
3:54 PM 60.1°F 32.0°F 35% 30.41 in 10.0 miles NW 6.9 mph - N/A   Clear
4:54 PM 59.0°F 30.9°F 35% 30.41 in 10.0 miles NW 3.5 mph - N/A   Clear
5:54 PM 55.9°F 32.0°F 40% 30.42 in 10.0 miles Variable 4.6 mph - N/A   Clear
6:54 PM 53.1°F 32.0°F 45% 30.43 in 10.0 miles ENE 3.5 mph - N/A   Clear
7:54 PM 51.1°F 32.0°F 48% 30.43 in 10.0 miles NE 3.5 mph - N/A   Clear
8:54 PM 50.0°F 32.0°F 50% 30.43 in 10.0 miles East 4.6 mph - N/A   Clear
9:54 PM 46.9°F 30.9°F 54% 30.43 in 10.0 miles East 4.6 mph - N/A   Clear
10:54 PM 45.0°F 33.1°F 63% 30.42 in 10.0 miles East 5.8 mph - N/A   Clear
11:54 PM 45.0°F 32.0°F 60% 30.42 in 10.0 miles ESE 5.8 mph - N/A   Clear
Astronomy
Sunrise:07:22 AM (CDT) Moon Rise:03:30 PM (CDT)10/13
Sunset:06:29 PM (CDT) Moon Set:01:21 AM (CDT)10/13
Moon Phase
Oct. 13 Oct. 18 Oct. 26 Nov. 03 Nov. 10

Copyright © 2017 The Weather Underground, Inc.